[[{"header":{"parameterUnit":"m.s-1","parameterCategory":1,"la1":30.2991,"la2":30.254,"lo1":-89.0895,"lo2":-89.0444,"dy":0.0017,"dx":0.0017,"nx":28,"ny":28,"refTime":"2024-08-15T09:00:00:Z","depth":0,"parameterNumber":2,"parameterNumberName":"U-component_of_WINDS"},"data":[0,0,0,0,0,0,0,0,0,0,0,0,0,0,0,0,0,0,0,0,0,0,0,0,0,0,0,0,0,0,0,0,0,0,0,0,0,0,0,0,0,0,0,0,0,0,0,0,0,0,0,0,0,0,0,0,0,0,-0.6489,-0.6489,0,-0.6492,-0.6492,-0.6492,-0.6486,-0.6486,-0.6485,-0.6485,-0.6488,-0.6488,-0.6489,0,0,0,0,0,0,0,0,0,0,0,0,0,-0.6476,-0.6477,-0.6489,-0.6489,-0.6489,-0.6492,-0.6492,-0.6492,-0.6486,-0.6486,-0.6485,-0.6485,-0.6488,-0.6488,-0.6489,0,0,0,0,0,0,0,0,0,0,0,0,0,-0.6481,-0.6477,-0.6489,-0.6486,-0.6486,-0.6492,-0.6492,-0.6492,-0.6486,-0.6486,-0.6485,-0.6485,-0.6488,-0.6488,-0.6489,-0.6497,0,0,-0.649,-0.649,0,0,0,0,0,0,0,0,-0.6481,-0.6481,-0.6487,-0.6486,-0.6486,-0.6488,-0.6489,-0.6494,-0.6486,-0.6486,-0.6485,-0.6485,-0.6488,-0.6489,-0.649,-0.6498,-0.6498,-0.649,-0.649,-0.649,-0.649,0,0,0,0,0,0,0,-0.648,-0.6481,-0.649,-0.6487,-0.6486,-0.6485,-0.6485,-0.649,-0.6489,-0.6486,-0.6486,-0.6486,-0.6488,-0.649,-0.649,-0.6498,-0.649,-0.649,-0.6491,-0.6491,-0.6512,-0.6512,0,0,0,0,0,0,-0.648,-0.6481,-0.649,-0.649,-0.6483,-0.6485,-0.6485,-0.6488,-0.6489,-0.6489,-0.6486,-0.6486,-0.6489,-0.649,-0.649,-0.65,-0.649,-0.6491,-0.6491,-0.6512,-0.6512,-0.6512,0,0,0,0,0,0,-0.648,-0.6481,-0.649,-0.6486,-0.6487,-0.6486,-0.6489,-0.6488,-0.649,-0.6489,-0.6489,-0.6488,-0.6489,-0.649,-0.6496,-0.65,-0.6491,-0.6491,-0.6511,-0.6512,-0.6512,-0.652,0,0,0,0,0,0,-0.648,-0.6481,-0.6485,-0.6486,-0.6487,-0.6496,-0.6489,-0.6489,-0.649,-0.649,-0.6491,-0.649,-0.6489,-0.6495,-0.6496,-0.65,-0.6492,-0.6511,-0.6511,-0.6512,-0.6519,-0.652,-0.6521,0,0,0,0,0,-0.6479,-0.6487,-0.6485,-0.6486,-0.6491,-0.6496,-0.6497,-0.6495,-0.6491,-0.6494,-0.6494,-0.649,-0.6499,-0.6496,-0.6497,-0.6501,-0.651,-0.6511,-0.6512,-0.6518,-0.652,-0.6521,0,0,0,0,0,0,-0.6487,-0.6487,-0.6485,-0.6493,-0.6495,-0.6495,-0.6499,-0.6496,-0.6499,-0.6498,-0.6495,-0.6496,-0.6502,-0.6502,-0.6498,-0.6509,-0.6504,-0.6505,-0.6509,-0.651,-0.6511,-0.6511,-0.6492,0,0,0,0,0,-0.6489,-0.6493,-0.6493,-0.65,-0.6501,-0.65,-0.6502,-0.65,-0.6502,-0.6502,-0.6502,-0.6503,-0.6506,-0.6508,-0.6511,-0.6519,-0.6519,-0.6523,-0.6524,-0.6525,-0.6525,-0.6529,-0.653,-0.6515,-0.6515,-0.6515,0,0,-0.6494,-0.6495,-0.6498,-0.6502,-0.6503,-0.6506,-0.6501,-0.6505,-0.6508,-0.6503,-0.6508,-0.6508,-0.651,-0.6516,-0.6519,-0.6517,-0.653,-0.6526,-0.6527,-0.6527,-0.653,-0.6531,-0.6533,-0.6515,-0.6515,-0.6515,0,0,-0.6505,-0.6507,-0.6512,-0.6513,-0.6515,-0.6514,-0.6515,-0.6516,-0.6516,-0.6522,-0.6518,-0.6521,-0.6526,-0.6527,-0.6528,-0.6539,-0.6536,-0.654,-0.6546,-0.655,-0.6551,-0.6552,-0.6555,-0.6556,-0.6541,-0.6541,-0.6541,0,-0.6512,-0.6517,-0.6516,-0.652,-0.6522,-0.6518,-0.6523,-0.6524,-0.6526,-0.6527,-0.6524,-0.6531,-0.6531,-0.6538,-0.654,-0.6542,-0.6543,-0.654,-0.6551,-0.6552,-0.6553,-0.6556,-0.6557,-0.6542,-0.6542,-0.6541,-0.6541,0,-0.6524,-0.6528,-0.6533,-0.6535,-0.6537,-0.6542,-0.654,-0.6543,-0.6541,-0.654,-0.6546,-0.6546,-0.6549,-0.655,-0.6549,-0.6556,-0.6555,-0.6551,-0.6546,-0.6555,-0.6558,-0.6559,-0.6542,-0.6542,-0.6542,-0.6542,0,0,-0.654,-0.6541,-0.6542,-0.6543,-0.6544,-0.6547,-0.6552,-0.6554,-0.6556,-0.6558,-0.6561,-0.6566,-0.6563,-0.6564,-0.6562,-0.6565,-0.6573,-0.6562,-0.6562,-0.6563,-0.6581,-0.6582,-0.6584,-0.6571,-0.6571,-0.6571,-0.658,0,-0.655,-0.6558,-0.6556,-0.6564,-0.6567,-0.6563,-0.6567,-0.6568,-0.6568,-0.657,-0.6569,-0.6572,-0.6569,-0.6569,-0.6572,-0.6571,-0.6576,-0.6571,-0.6573,-0.6574,-0.6573,-0.6585,-0.6587,-0.6596,-0.6581,-0.6582,-0.6582,0,-0.6563,-0.6565,-0.6573,-0.6573,-0.6575,-0.6578,-0.658,-0.6583,-0.6583,-0.6583,-0.6584,-0.6582,-0.6586,-0.6581,-0.6586,-0.6582,-0.6583,-0.6583,-0.6584,-0.6583,-0.6578,-0.6584,-0.6598,-0.6599,-0.6584,-0.6583,-0.6583,0,-0.6573,-0.6577,-0.6582,-0.6583,-0.6584,-0.6586,-0.6587,-0.6587,-0.6589,-0.659,-0.6591,-0.6593,-0.6594,-0.6596,-0.6594,-0.6591,-0.6599,-0.6594,-0.6598,-0.6598,-0.6599,-0.6599,-0.6613,-0.6601,-0.6601,-0.6601,-0.6601,0,-0.6584,-0.6589,-0.6587,-0.659,-0.6595,-0.6593,-0.6597,-0.6597,-0.6598,-0.66,-0.6598,-0.66,-0.6598,-0.66,-0.6599,-0.6603,-0.6603,-0.6603,-0.6602,-0.6602,-0.6602,-0.6603,-0.6602,-0.6602,-0.6602,-0.6602,-0.6602,0,-0.6595,-0.6594,-0.6599,-0.6599,-0.6599,-0.6603,-0.6603,-0.6605,-0.6605,-0.6608,-0.6609,-0.6607,-0.661,-0.6608,-0.6611,-0.661,-0.6615,-0.6614,-0.6615,-0.6614,-0.6618,-0.6617,-0.6631,-0.6632,-0.6621,-0.6621,-0.6621,0,-0.6602,-0.6605,-0.6606,-0.6607,-0.6608,-0.661,-0.6612,-0.661,-0.6611,-0.6612,-0.6615,-0.6617,-0.6618,-0.6623,-0.6622,-0.6623,-0.6622,-0.6627,-0.6622,-0.6622,-0.6621,-0.6621,-0.6621,-0.6628,-0.6628,-0.6628,-0.6628,0,-0.6614,-0.6613,-0.6615,-0.6617,-0.6619,-0.662,-0.6621,-0.6623,-0.6621,-0.6623,-0.6625,-0.6626,-0.6629,-0.6631,-0.6632,-0.6632,-0.6629,-0.6629,-0.663,-0.663,-0.663,-0.663,-0.6616,-0.6629,-0.6629,-0.6629,-0.6629,-0.6629,-0.6622,-0.6625,-0.6625,-0.6628,-0.6628,-0.6629,-0.6632,-0.6631,-0.6633,-0.6635,-0.6634,-0.6637,-0.6637,-0.6639,-0.6639,-0.6641,-0.6639,-0.664,-0.6641,-0.6641,-0.6641,-0.6631,-0.6641,-0.6641,-0.6641,-0.6641,-0.6641,0,-0.6633,-0.6633,-0.6636,-0.6637,-0.6639,-0.6637,-0.6638,-0.6639,-0.6642,-0.6642,-0.6644,-0.6646,-0.6648,-0.6648,-0.6649,-0.6651,-0.665,-0.6651,-0.6651,-0.6651,-0.6643,-0.6642,-0.6652,-0.6652,-0.6652,-0.6652,-0.6652,-0.6652,-0.6639,-0.6643,-0.6642,-0.6647,-0.6647,-0.6649,-0.665,-0.6651,-0.6651,-0.6654,-0.6656,-0.6656,-0.6656,-0.6657,-0.6659,-0.6658,-0.6659,-0.6661,-0.666,-0.6653,-0.6651,-0.665,-0.6649,-0.6661,-0.6661,-0.6667,-0.6668,-0.6668]},{"header":{"parameterUnit":"m.s-1","parameterCategory":1,"la1":30.2991,"la2":30.254,"lo1":-89.0895,"lo2":-89.0444,"dy":0.0017,"dx":0.0017,"nx":28,"ny":28,"refTime":"2024-08-15T09:00:00:Z","depth":0,"parameterNumber":3,"parameterNumberName":"V-component_of_WINDS"},"data":[0,0,0,0,0,0,0,0,0,0,0,0,0,0,0,0,0,0,0,0,0,0,0,0,0,0,0,0,0,0,0,0,0,0,0,0,0,0,0,0,0,0,0,0,0,0,0,0,0,0,0,0,0,0,0,0,0,0,-1.9873,-1.9873,0,-1.9881,-1.9881,-1.9881,-1.9845,-1.9844,-1.9843,-1.9842,-1.985,-1.9851,-1.9852,0,0,0,0,0,0,0,0,0,0,0,0,0,-1.9826,-1.9827,-1.9873,-1.9873,-1.9874,-1.9881,-1.9881,-1.9881,-1.9846,-1.9844,-1.9843,-1.9842,-1.985,-1.9851,-1.9852,0,0,0,0,0,0,0,0,0,0,0,0,0,-1.9841,-1.9827,-1.9873,-1.9857,-1.9855,-1.9881,-1.9881,-1.9881,-1.9846,-1.9844,-1.9843,-1.9841,-1.9849,-1.9851,-1.9853,-1.9895,0,0,-1.9858,-1.9859,0,0,0,0,0,0,0,0,-1.9841,-1.9843,-1.9859,-1.9858,-1.9856,-1.9861,-1.9867,-1.9886,-1.9846,-1.9849,-1.9842,-1.984,-1.9855,-1.9856,-1.9861,-1.9895,-1.9896,-1.9858,-1.9859,-1.986,-1.9861,0,0,0,0,0,0,0,-1.984,-1.9843,-1.9876,-1.9859,-1.9858,-1.9848,-1.9849,-1.9871,-1.9861,-1.9849,-1.9846,-1.9848,-1.9854,-1.9859,-1.9861,-1.9896,-1.9858,-1.986,-1.9861,-1.9862,-1.9964,-1.9966,0,0,0,0,0,0,-1.9841,-1.9842,-1.9876,-1.9877,-1.9844,-1.985,-1.9851,-1.9861,-1.986,-1.9859,-1.9849,-1.9846,-1.9857,-1.9859,-1.9861,-1.991,-1.986,-1.9862,-1.9863,-1.9963,-1.9965,-1.9966,0,0,0,0,0,0,-1.984,-1.9844,-1.9876,-1.9859,-1.9862,-1.9853,-1.9864,-1.9862,-1.9867,-1.9861,-1.9859,-1.9857,-1.9856,-1.9859,-1.9887,-1.991,-1.9863,-1.9864,-1.9961,-1.9963,-1.9965,-2.0009,0,0,0,0,0,0,-1.9839,-1.9844,-1.9861,-1.9859,-1.9863,-1.9902,-1.9866,-1.9863,-1.9871,-1.9867,-1.9867,-1.9866,-1.9855,-1.9884,-1.9888,-1.9911,-1.9866,-1.9958,-1.9962,-1.9965,-2.0005,-2.0012,-2.0018,0,0,0,0,0,-1.9837,-1.9873,-1.9862,-1.9866,-1.9883,-1.9903,-1.9905,-1.9892,-1.9873,-1.9889,-1.9884,-1.9866,-1.9906,-1.9887,-1.9892,-1.9916,-1.9957,-1.9961,-1.9964,-2.0002,-2.0011,-2.0018,0,0,0,0,0,0,-1.9877,-1.9872,-1.986,-1.9896,-1.99,-1.9897,-1.9917,-1.9902,-1.9912,-1.9908,-1.9891,-1.9891,-1.9922,-1.9922,-1.99,-1.9956,-1.9928,-1.9933,-1.9955,-1.9964,-1.997,-1.997,-1.9867,0,0,0,0,0,-1.989,-1.9907,-1.9902,-1.9934,-1.9937,-1.9927,-1.9935,-1.9924,-1.9928,-1.993,-1.9927,-1.9931,-1.9945,-1.9954,-1.9966,-2.0005,-2.0004,-2.0023,-2.003,-2.0035,-2.004,-2.0059,-2.0067,-1.9979,-1.9979,-1.9979,0,0,-1.9917,-1.9917,-1.9928,-1.9942,-1.9944,-1.9961,-1.9929,-1.9949,-1.9961,-1.9933,-1.9959,-1.9957,-1.996,-1.9994,-2.0008,-1.9994,-2.0064,-2.004,-2.0045,-2.0046,-2.0064,-2.0072,-2.008,-1.9981,-1.9981,-1.998,0,0,-1.9975,-1.9977,-2.0004,-2.0006,-2.0009,-2.0002,-2.0009,-2.0008,-2.0005,-2.0031,-2.001,-2.0024,-2.0048,-2.0051,-2.0056,-2.0114,-2.0097,-2.0118,-2.0153,-2.0172,-2.0179,-2.0186,-2.0206,-2.0213,-2.0123,-2.0123,-2.0123,0,-2.0009,-2.0034,-2.0019,-2.004,-2.0047,-2.0021,-2.0048,-2.0051,-2.0058,-2.0063,-2.0047,-2.0076,-2.0076,-2.0109,-2.0123,-2.0128,-2.0134,-2.0118,-2.018,-2.0186,-2.0191,-2.021,-2.0218,-2.0125,-2.0125,-2.0125,-2.0125,0,-2.0075,-2.0093,-2.0114,-2.0121,-2.0129,-2.0153,-2.0141,-2.0152,-2.014,-2.0134,-2.0161,-2.016,-2.0171,-2.0178,-2.0167,-2.021,-2.0201,-2.0183,-2.0154,-2.0202,-2.022,-2.0227,-2.0129,-2.0128,-2.0127,-2.0127,0,0,-2.0159,-2.0157,-2.0165,-2.0167,-2.0169,-2.0182,-2.0204,-2.0215,-2.0224,-2.0229,-2.0247,-2.0267,-2.025,-2.0255,-2.0244,-2.0261,-2.0306,-2.0241,-2.024,-2.0253,-2.0352,-2.0366,-2.0375,-2.0295,-2.0296,-2.0297,-2.0352,0,-2.0216,-2.0254,-2.024,-2.0279,-2.0294,-2.027,-2.0289,-2.0292,-2.0287,-2.0299,-2.0293,-2.0308,-2.0284,-2.0287,-2.0303,-2.0298,-2.0326,-2.0293,-2.0311,-2.0312,-2.0311,-2.0384,-2.0398,-2.045,-2.0359,-2.036,-2.0361,0,-2.0287,-2.0295,-2.0335,-2.0333,-2.0339,-2.0356,-2.0364,-2.0377,-2.0379,-2.0374,-2.0379,-2.0364,-2.0385,-2.0357,-2.0385,-2.0363,-2.0369,-2.0368,-2.0369,-2.037,-2.0339,-2.0387,-2.0466,-2.0474,-2.0371,-2.037,-2.037,0,-2.0344,-2.0365,-2.0391,-2.0394,-2.0392,-2.0405,-2.0404,-2.0405,-2.0412,-2.0419,-2.0423,-2.0432,-2.0438,-2.0445,-2.0433,-2.0413,-2.0463,-2.0433,-2.0459,-2.0459,-2.0471,-2.047,-2.0552,-2.0475,-2.0475,-2.0475,-2.0474,0,-2.0409,-2.0434,-2.0417,-2.0433,-2.046,-2.0444,-2.0471,-2.0468,-2.0468,-2.0483,-2.0463,-2.0477,-2.046,-2.0472,-2.0463,-2.0487,-2.049,-2.0486,-2.0483,-2.0488,-2.0489,-2.0492,-2.0488,-2.0477,-2.0476,-2.0476,-2.0475,0,-2.0477,-2.0467,-2.0494,-2.0489,-2.0488,-2.0509,-2.0504,-2.0519,-2.0512,-2.0531,-2.0534,-2.0524,-2.0537,-2.0526,-2.0539,-2.0532,-2.0565,-2.0557,-2.0564,-2.0562,-2.0588,-2.0586,-2.0675,-2.0685,-2.0602,-2.0603,-2.0603,0,-2.0519,-2.0538,-2.0535,-2.0543,-2.0544,-2.0558,-2.0565,-2.0549,-2.0557,-2.056,-2.0574,-2.0586,-2.0594,-2.0617,-2.061,-2.062,-2.0612,-2.0643,-2.0614,-2.0617,-2.0612,-2.0611,-2.0613,-2.0649,-2.065,-2.0651,-2.0651,0,-2.0595,-2.0588,-2.0599,-2.0607,-2.0616,-2.0622,-2.0626,-2.0634,-2.0618,-2.0628,-2.0641,-2.0648,-2.0661,-2.0673,-2.068,-2.0679,-2.0663,-2.066,-2.0667,-2.0672,-2.0675,-2.0673,-2.058,-2.0658,-2.0658,-2.0657,-2.0657,-2.0657,-2.0651,-2.0666,-2.0666,-2.0678,-2.068,-2.0684,-2.0697,-2.0691,-2.0702,-2.0712,-2.0702,-2.0718,-2.0718,-2.0727,-2.0728,-2.074,-2.0727,-2.0736,-2.0739,-2.0741,-2.0745,-2.0673,-2.0741,-2.0741,-2.0741,-2.0741,-2.074,0,-2.0725,-2.0723,-2.0734,-2.0741,-2.075,-2.0733,-2.0737,-2.0746,-2.076,-2.0762,-2.0771,-2.0786,-2.0797,-2.0791,-2.08,-2.0811,-2.0804,-2.0814,-2.0813,-2.0813,-2.0756,-2.0749,-2.082,-2.082,-2.082,-2.082,-2.082,-2.082,-2.0764,-2.0789,-2.0782,-2.0807,-2.0805,-2.082,-2.0824,-2.0828,-2.0829,-2.0846,-2.0855,-2.0851,-2.0849,-2.0858,-2.0868,-2.0865,-2.087,-2.0883,-2.0878,-2.0825,-2.0817,-2.081,-2.0803,-2.0884,-2.0884,-2.0934,-2.0935,-2.0935]}]]